Погода Остров Диксон

Погода Остров Диксон : погода сейчас, прогноз погоды и архив. Всё, что Вы хотите узнать о погоде Остров Диксон!

Хотите узнать прогноз погоды Остров Диксон? Тогда Вам сюда: Погода Остров Диксон

Поиск расширенной информации на нашем сайте:

Другие новости

Новости СМИ2

Главная страница сайта

Новости сайта

03.07.2017

Напоминаем, что на нашем специализированном сайте Метеоцентр.Азия вы можете получить высокодетализированные автоматические прогнозы погоды по пунктам России, СНГ и мира в авиационном формате (включающие направление и скорость ветра, видимость, явления погоды, количество и форму облачности, нижнюю и верхнюю границу облачности).


Погода Остров Диксон - сегодня

Время (UTC), дата Ветер
(°,м/с) 
Видим.   Явления Облачность Т
(°С)
Тd
(°С)
f(%) Тe
(°С)
Pmin
(гПа)
dP
(гПа)
Po
(мм)
O2
(г/м3)
Тmin Tmax R s Состояние
почвы
09 08.05.18 340 (С) 20000 м    6/0 верхняя 
[Ci fib]
-9.6 -13.2 75 -11  1021.7  0.2  762  319           
15 08.05.18 240 (ЮЗ) 20000 м    9/0 средняя, верхняя 
[Ac trans|Ci fib]
-11 -13.9 79 -16  1020.6  -0.5  761  321           
18 08.05.18 260 (З) 20000 м    8/0 средняя, верхняя 
[Ac trans|Ci fib]
-13.5 -15.8 83 -19  1020.2  -0.5  761  324           
21 08.05.18 260 (З) 20000 м    9/0 средняя 
[Ac und]
-13.9 -15.9 85 -19  1019.6  -0.6  760  324           
21 09.05.18 210 (ЮЗ) 20000 м    9/9 210 м 
[St]
-7.5 -8.5 93 -11  1016.8  -0.9  758  315           
06 11.05.18 110 (В) 20000 м  {ливн. осадки}  8/8 1500 м средняя 
[Ac cast]
-5.2 -8.4 78 -8  1014.6  1.6  756  312           
15 11.05.18 060 (СВ) 20000 м    3/0 верхняя 
[Ci fib]
-10.4 -12 88 -14  1019.4  1.2  760  320           
18 11.05.18 050 (СВ) 20000 м    3/0 средняя 
[Ac trans]
-11.5 -12.7 91 -13  1020.2  0.7  761  321           
03 12.05.18 350 (С) 4000 м  дымка{туман}  8/0 верхняя 
[Ci fib]
-10.9 -12.3 89 -13  1021.4  -0.1  761  321           
00 13.05.18 170 (Ю) 6{10}  2000 м  слаб. ливневой снег  9/8 180 м кучево-дожд., верхняя 
[Cb cap|Ci fib]
-10.6 -12.1 89 -16  1006.5  -2.7  750  316  -12    0.0  69  неравномерный
сухой снег
100% 
09 13.05.18 130 (ЮВ) 20000 м    6/0 средняя, верхняя 
[Ac trans|Ci fib]
-8.7 -10.5 87 -12  1004.8  0.7  749  313           
00 14.05.18 010 (С) 8{10}  4000 м  слаб. ливневой снег  9/9 400 м кучево-дожд. 
[Cb cap]
-11.9 -13.5 88 -19  1009.1  0.8  752  318  -12.4    0.3  69  неравномерный
сухой снег
100% 
03 15.05.18 360 (С) 20000 м    8/8 180 м 
[St]
-13.9 -15.7 86 -19  1012.6  0.2  755  322           
06 15.05.18 360 (С) 20000 м    3/3 200 м средняя 
[St|Ac trans]
-12.8 -14.9 84 -18  1012.6  755  320           
09 15.05.18 010 (С) 20000 м    6/4 300 м средняя 
[Sc|Ac trans]
-12 -14 85 -17  1013.1  0.5  755  320           
21 15.05.18 350 (С) 20000 м  позёмок  4/0 средняя 
[Ac lent]
-15 -16.8 86 -21  1013.5  0.1  755  324           
15 17.05.18 020 (С) 7{12}  20000 м  позёмок  ясно 
-7.4 -9 88 -13  1016.3  758  315           
18 17.05.18 010 (С) 20000 м  позёмок  3/0 верхняя 
[Ci fib]
-10.5 -11.7 91 -16  1016.8  0.4  758  319           
21 17.05.18 010 (С) 20000 м  позёмок  ясно 
-11.8 -13.1 90 -17  1016.9  758  320           
15 20.05.18 040 (СВ) 20000 м    9/9 600 м 
[Sc]
-8 -9.5 89 -12  1004.3  -0.7  749  312           
06 21.05.18 280 (З) 20000 м    5/3 200 м средняя, верхняя 
[St|Ac trans|Ci fib]
-8.2 -10.1 86 -8  1003.5  -0.8  748  312           
09 21.05.18 190 (Ю) 20000 м    9/9 400 м 
[Sc]
-8.3 -10.1 87 -13  1001.9  -1.6  747  311           
00 22.05.18 140 (ЮВ) 9-11{12}  2000 м  снег  10/10 180 м 
[Frnb|Ns]
-1.9 -2.6 95 -7  988.7  -2  737  299  -8.6    69  неравномерный
сухой снег
100% 
15 22.05.18 150 (ЮВ) 20000 м    9/9 540 м 
[Sc]
-0.2 -1.2 93 995.1  1.9  742  299           
00 23.05.18 330 (СЗ) 0500 м  переохл. туман  ?/?  
-2.2 -2.2 100 -6  999.9  1.4  746  303  -2.2    0.0  68  неравномерный
мокрый или
старый снег
100% 
Время (UTC), дата Ветер
(°,м/с) 
Видим.   Явления Облачность Т
(°С)
Тd
(°С)
f(%) Тe
(°С)
Pmin
(гПа)
dP
(гПа)
Po
(мм)
O2
(г/м3)
Тmin Tmax R s Состояние
почвы

Для получения пояснительной информации подведите курсор к названию столбца.

ПОГОДА Остров Диксон - архив

Всё, что Вы хотите узнать о погоде Остров Диксон - удобно и подробно!

Выберите нужную дату (начиная с 1 января 2015* года) и нажмите кнопку "Найти".
Будут отображены архивные сводки погоды по пункту Остров Диксон, начиная с указанной даты.


Отображать данные в формате CSV (для использования в таблицах Excel)


Внимание! Наш архив погоды предназначен исключительно для личного некоммерческого использования в познавательных целях. Если Вам необходимы официальные справки о состоянии погоды (для производственных, юридических, коммерческих и т.п. целей), обращайтесь в органы Росгидромета.

*Примечание: данная дата относится к архиву по метеостанциям СССР (Россия, СНГ, Балтия).
Архив по метеостанциям Зарубежной Европы и Азии (кроме Китая) хранится 10 дней, по другим регионам земного шара (Китай, Африка, Америка, Австралия, Океания) - 1 день.

Остров Диксон - район местоположения метеостанции


Название, широта, долгота, высота метеостанции:
Остров Диксон 73.5°ш. 80.4°д. 47 м над ур. моря [Российская Федерация]

Дополнительная информация

В oтличие oт бoльшинства пoгoдных сайтoв мы публикуем пoдрoбную метеoинфoрмацию в детальнoм прoфессиoнальнoм фoрмате.

Характеристики температуры и влажнoсти вoздуха измеряются на высoте 2 м в тени вдали oт зданий и деревьев.
Скoрoсть ветра измеряется на высoте 10 м (на урoвне рoста челoвека скoрoсть ветра ниже в 1.5-2 раза). Если метеoстанция нахoдится в гoрoде или в лесу, тo скoрoсть ветра занижена на 2-4 м/с пo сравнению с oткрытым местoм. Скoрoсть ветра над акватoриями крупных рек и oзёр, а также на вершинах хoлмoв на 2-5 м/с выше, чем в oбычных услoвиях.
Атмoсфернoе давление в разных тoчках местнoсти мoжет значительнo oтличаться oт давления на метеoстанции, в зависимoсти oт услoвий рельефа (при пoдъёме на 10 м давление пoнижается примернo на 1 мм рт.ст.).